Location: Pine Mountain Observatory
(43.7910°N, 120.9377°W)
Time: 01:46:24
(UTC-07:00)

Cosmos 1867 - Visible Passes

Search period start: 24 June 2017 00:00
Search period end: 04 July 2017 00:00
Orbit: 778 x 798 km, 65.0° (Epoch: 23 June)

Date Brightness Start Highest point End Pass type
(mag) Time Alt. Az. Time Alt. Az. Time Alt. Az.
24 Jun 6.0 00:10:18 10° W 00:14:28 22° NW 00:18:38 10° NNE visible
24 Jun 3.6 21:53:13 10° SSW 21:58:35 62° ESE 22:03:58 10° NE visible
24 Jun 5.7 23:38:01 10° W 23:42:35 26° NW 23:47:10 10° NNE visible
25 Jun 3.9 21:21:50 10° S 21:27:00 46° ESE 21:32:12 10° NE visible
25 Jun 5.4 23:05:51 10° WSW 23:10:44 33° NW 23:15:40 10° NNE visible
26 Jun 6.9 00:55:11 10° NNW 00:56:06 10° NNW 00:57:02 10° N visible
26 Jun 6.6 04:25:10 10° N 04:28:41 17° NNE 04:32:12 10° ENE visible
26 Jun 5.0 22:33:48 10° WSW 22:38:57 42° NW 22:44:09 10° NNE visible
27 Jun 6.8 00:21:56 10° NW 00:24:04 12° NNW 00:26:12 10° N visible
27 Jun 6.8 03:53:50 10° N 03:56:43 14° NNE 03:59:36 10° ENE visible
27 Jun 4.5 22:01:53 10° SW 22:07:12 54° NW 22:12:35 10° NNE visible
27 Jun 6.7 23:49:08 10° WNW 23:52:03 14° NNW 23:54:59 10° N visible
28 Jun 7.0 03:22:37 10° N 03:24:42 12° NNE 03:26:47 10° NE visible
28 Jun 4.0 21:30:04 10° SW 21:35:30 71° NW 21:40:59 10° NNE visible
28 Jun 6.6 23:16:32 10° WNW 23:20:05 17° NNW 23:23:38 10° N visible
29 Jun 7.2 02:51:51 10° NNE 02:52:39 10° NNE 02:53:27 10° NNE visible
29 Jun 5.7 04:33:07 10° NNW 04:38:02 32° NE 04:42:54 10° ESE visible
29 Jun 6.4 22:44:06 10° W 22:48:09 21° NW 22:52:14 10° NNE visible
30 Jun 6.1 04:01:37 10° NNW 04:06:12 26° NE 04:10:44 10° E visible
30 Jun 6.1 22:11:47 10° W 22:16:16 25° NW 22:20:47 10° NNE visible
01 Jul 6.3 03:30:10 10° NNW 03:34:19 21° NE 03:38:26 10° E visible
01 Jul 5.8 21:39:35 10° WSW 21:44:25 31° NW 21:49:18 10° NNE visible
01 Jul 7.3 23:29:30 10° NNW 23:29:50 10° NNW 23:30:11 10° NNW visible
02 Jul 6.6 02:58:45 10° N 03:02:24 18° NNE 03:06:01 10° ENE visible
02 Jul 3.9 04:41:27 10° NNW 04:46:56 74° NE 04:52:21 10° SE visible
02 Jul 7.0 22:55:51 10° NW 22:57:47 12° NNW 22:59:44 10° N visible
03 Jul 6.7 02:27:24 10° N 02:30:25 15° NNE 02:33:27 10° ENE visible
03 Jul 4.4 04:09:51 10° NNW 04:15:14 56° NE 04:20:34 10° SE visible
03 Jul 6.8 22:23:00 10° WNW 22:25:46 14° NNW 22:28:32 10° N visible
